This is the latest recevied weather packets stored in our database for station/object KO4YAW. If no packets are shown the sender has not sent any weather packets the latest 10 day(s).
| Time | Temp. | Humidity | Pressure | Rain* | Wind** | Luminosity | Snow |
|---|---|---|---|---|---|---|---|
| 1788520729 | 17.22° C | 48% | 1017.3 hPa | 0 mm | - | 0 W/m² | - |
| 1788519829 | 17.78° C | 45% | 1017.3 hPa | 0 mm | - | 0 W/m² | - |
| 1788518929 | 17.78° C | 45% | 1017.1 hPa | 0 mm | - | 0 W/m² | - |
| 1788518029 | 17.78° C | 44% | 1017 hPa | 0 mm | - | 0 W/m² | - |
| 1788517129 | 18.33° C | 44% | 1016.9 hPa | 0 mm | - | 0 W/m² | - |
| 1788516229 | 18.89° C | 42% | 1016.9 hPa | 0 mm | - | 0 W/m² | - |
| 1788515329 | 18.89° C | 40% | 1016.6 hPa | 0 mm | - | 0 W/m² | - |
| 1788514429 | 18.89° C | 41% | 1016.4 hPa | 0 mm | - | 0 W/m² | - |
| 1788513529 | 18.89° C | 46% | 1016.4 hPa | 0 mm | - | 0 W/m² | - |
| 1788512629 | 20° C | 46% | 1016.2 hPa | 0 mm | - | 0 W/m² | - |
| 1788511756 | 20° C | 45% | 1016 hPa | 0 mm | - | 0 W/m² | - |
| 1788510829 | 19.44° C | 45% | 1016 hPa | 0 mm | - | 0 W/m² | - |
| 1788509929 | 20° C | 44% | 1016 hPa | 0 mm | - | 0 W/m² | - |
| 1788509029 | 20.56° C | 42% | 1016.2 hPa | 0 mm | - | 0 W/m² | - |
| 1788508129 | 21.67° C | 41% | 1016.2 hPa | 0 mm | - | 0 W/m² | - |
| 1788507229 | 22.22° C | 39% | 1016.2 hPa | 0 mm | - | 0 W/m² | - |
| 1788506329 | 22.22° C | 37% | 1016.3 hPa | 0 mm | - | 0 W/m² | - |
| 1788505429 | 22.78° C | 37% | 1016.5 hPa | 0 mm | - | 0 W/m² | - |
| 1788504529 | 22.78° C | 36% | 1016.5 hPa | 0 mm | - | 0 W/m² | - |
| 1788503629 | 22.78° C | 34% | 1016.5 hPa | 0 mm | - | 0 W/m² | - |
| 1788502729 | 22.78° C | 34% | 1016.6 hPa | 0 mm | - | 0 W/m² | - |
| 1788501829 | 22.78° C | 33% | 1016.7 hPa | 0 mm | - | 0 W/m² | - |
| 1788500929 | 23.33° C | 32% | 1016.6 hPa | 0 mm | - | 0 W/m² | - |
| 1788500029 | 22.78° C | 33% | 1016.6 hPa | 0 mm | - | 0 W/m² | - |
| 1788499129 | 22.78° C | 33% | 1016.6 hPa | 0 mm | - | 0 W/m² | - |
* Rain since midnight (hover to see other rain measurements)
** Current wind speed in m/s (hover to see current wind gust speed)